Location: Wanzleben
(52.0609°N, 11.4408°E)
Time: 01:25:09
(UTC+00:00)

Resurs 01 Rocket - Pass Details

Date: 18 September 2020
Orbit: 633 x 645 km, 98.0° (Epoch: 23 October)

Event Time Altitude Azimuth Distance (km) Brightness Sun altitude
Exits shadow 20:56:50 18° 253° (WSW) 1,582 3.8 -29.8°
Maximum altitude 20:57:46 19° 270° (W) 1,532 3.9 -29.9°
Drops below altitude 10° 21:00:59 10° 316° (NW) 2,053 5.1 -30.2°
Sets 21:03:47 0° 334° (NNW) 2,967 6.2 -30.4°
